EW5212 Weather Reports


time (UTC)temp
F
wind
direction
speed
knots
gust
knots
rain 1hr
in
rain 24hr
in
rain mn
in
humidity
%
barometer
mb
20260505184016 86 45 1.7 4.3 0.00 0.00 0.00 33 1013.5
20260505183036 86 270 2.6 11.3 0.00 0.00 0.00 35 1013.3
20260505182016 85 315 3.5 13.9 0.00 0.00 0.00 34 1013.7
20260505181016 85 113 2.6 6.1 0.00 0.00 0.00 35 1013.7
20260505180017 85 293 2.6 7.0 0.00 0.00 0.00 36 1013.8
20260505175016 84 270 2.6 7.8 0.00 0.00 0.00 40 1013.9
20260505174016 84 23 2.6 8.7 0.00 0.00 0.00 39 1014.1
20260505173036 84 270 2.6 6.1 0.00 0.00 0.00 41 1014.0
20260505172016 84 90 1.7 10.4 0.00 0.00 0.00 42 1014.1
20260505171036 84 270 1.7 5.2 0.00 0.00 0.00 43 1014.2
20260505170056 84 68 2.6 6.1 0.00 0.00 0.00 43 1014.4
20260505165016 84 270 1.7 6.1 0.00 0.00 0.00 43 1014.4
20260505164016 83 45 1.7 5.2 0.00 0.00 0.00 43 1014.5
20260505163016 83 293 1.7 4.3 0.00 0.00 0.00 44 1014.6
20260505162016 82 45 1.7 4.3 0.00 0.00 0.00 45 1014.8
20260505161016 81 90 2.6 6.1 0.00 0.00 0.00 47 1015.0
20260505153016 80 90 1.7 4.3 0.00 0.00 0.00 50 1015.5
20260505152016 79 23 0.9 5.2 0.00 0.00 0.00 51 1015.5
20260505151016 78 90 1.7 6.1 0.00 0.00 0.00 52 1015.4
20260505125016 64 270 0.9 5.2 0.00 0.00 0.00 71 1015.4
20260505124016 63 270 1.7 4.3 0.00 0.00 0.00 73 1015.4
20260505123017 62 270 0.9 3.5 0.00 0.00 0.00 74 1015.5
20260505122016 62 270 0.9 4.3 0.00 0.00 0.00 74 1015.4
20260505121016 62 293 1.7 7.0 0.00 0.00 0.00 75 1015.3
20260505120017 61 293 0.9 4.3 0.00 0.00 0.00 75 1015.3
20260505115016 61 315 0.9 2.6 0.00 0.00 0.00 76 1015.2
20260505114016 61 270 0.9 4.3 0.00 0.00 0.00 76 1015.1
20260505113016 60 270 0.9 3.5 0.00 0.00 0.00 77 1015.0
20260505112016 60 293 0.9 2.6 0.00 0.00 0.00 77 1015.0
20260505111016 60 293 0.9 4.3 0.00 0.00 0.00 77 1014.9
20260505102016 60 0.0 1.7 0.00 0.00 0.00 77 1014.5
20260505101016 60 293 0.9 2.6 0.00 0.00 0.00 76 1014.4
20260505100015 60 270 0.9 5.2 0.00 0.00 0.00 76 1014.5
20260505095016 60 270 0.9 4.3 0.00 0.00 0.00 75 1014.5
20260505094016 61 270 0.9 2.6 0.00 0.00 0.00 74 1014.5
20260505093016 61 0.0 3.5 0.00 0.00 0.00 74 1014.4
20260505092016 61 270 0.9 4.3 0.00 0.00 0.00 74 1014.5
20260505091016 62 293 1.7 4.3 0.00 0.00 0.00 73 1014.3
20260505090016 62 338 0.9 3.5 0.00 0.00 0.00 73 1014.3
20260505085036 62 270 1.7 6.1 0.00 0.00 0.00 72 1014.3
20260505084016 62 270 0.9 5.2 0.00 0.00 0.00 72 1014.4
20260505083015 62 270 1.7 5.2 0.00 0.00 0.00 71 1014.3
20260505082036 63 270 0.9 3.5 0.00 0.00 0.00 71 1014.2
20260505081036 63 270 1.7 7.0 0.00 0.00 0.00 70 1014.2
20260505080036 63 270 0.9 5.2 0.00 0.00 0.00 70 1014.2
20260505075016 63 293 0.9 3.5 0.00 0.00 0.00 69 1014.2
20260505074056 63 293 0.9 2.6 0.00 0.00 0.00 68 1014.2
20260505073016 63 0.0 2.6 0.00 0.00 0.00 67 1014.1
20260505072016 63 270 0.9 2.6 0.00 0.00 0.00 66 1014.0
20260505071016 64 248 0.9 4.3 0.00 0.00 0.00 66 1013.8
20260505070016 64 0.0 2.6 0.00 0.00 0.00 65 1013.9
20260505065015 64 270 0.9 4.3 0.00 0.00 0.00 64 1013.7
20260505064016 64 270 0.9 4.3 0.00 0.00 0.00 63 1013.8
20260505063016 64 293 1.7 6.1 0.00 0.00 0.00 63 1013.7
20260505062016 64 270 0.9 4.3 0.00 0.00 0.00 62 1013.6
20260505061015 65 293 0.9 4.3 0.00 0.00 0.00 61 1013.7
20260505060015 65 293 0.9 1.7 0.00 0.00 0.00 60 1013.7
20260505055016 65 68 0.9 3.5 0.00 0.00 0.00 59 1013.8
20260505054016 66 0.0 2.6 0.00 0.00 0.00 58 1013.8
20260505053016 66 0.0 1.7 0.00 0.00 0.00 57 1013.7
20260505052035 66 270 0.9 3.5 0.00 0.00 0.00 57 1013.8
20260505051015 67 270 0.9 4.3 0.00 0.00 0.00 56 1013.7
20260505041016 66 0.0 0.0 0.00 0.00 0.00 57 1013.3
20260505040015 66 0.0 2.6 0.00 0.00 0.00 57 1013.2
20260505035015 66 0.0 0.9 0.00 0.00 0.00 58 1013.2
20260505034015 64 0.0 0.0 0.00 0.00 0.00 60 1013.2
20260505033015 64 0.0 0.0 0.00 0.00 0.00 61 1013.3
20260505032035 64 0.0 0.0 0.00 0.00 0.00 62 1013.3
20260505031015 65 0.0 0.0 0.00 0.00 0.00 60 1013.2
20260505030015 66 0.0 0.0 0.00 0.00 0.00 60 1013.4
20260505025035 67 0.0 0.0 0.00 0.00 0.00 59 1013.4
20260505024015 68 0.0 0.0 0.00 0.00 0.00 56 1013.4
20260505023015 68 0.0 0.9 0.00 0.00 0.00 54 1013.3
20260505022015 69 0.0 1.7 0.00 0.00 0.00 54 1013.2
20260505021015 69 0.0 0.9 0.00 0.00 0.00 53 1013.2
20260505020015 69 0.0 0.9 0.00 0.00 0.00 53 1013.3
20260505015015 69 0.0 0.0 0.00 0.00 0.00 53 1013.2
20260505014015 69 0.0 2.6 0.00 0.00 0.00 51 1013.1
20260505013015 70 0.0 2.6 0.00 0.00 0.00 51 1013.0
20260505012017 71 0.0 0.0 0.00 0.00 0.00 50 1012.8
20260505011017 71 0.0 0.9 0.00 0.00 0.00 49 1012.7
20260505010017 71 0.0 2.6 0.00 0.00 0.00 48 1012.6
20260505005017 72 0.0 0.0 0.00 0.00 0.00 47 1012.5
20260505004017 73 90 0.9 2.6 0.00 0.00 0.00 47 1012.4
20260505003017 73 270 0.9 5.2 0.00 0.00 0.00 46 1012.5
20260505002017 73 0.0 0.0 0.00 0.00 0.00 47 1012.5
20260505001017 73 0.0 2.6 0.00 0.00 0.00 46 1012.3
20260505000037 73 293 0.9 3.5 0.00 0.00 0.00 45 1012.6
20260504235057 73 0.0 1.7 0.00 0.00 0.00 44 1012.6
20260504234017 74 0.0 1.7 0.00 0.00 0.00 43 1012.5
20260504233015 74 270 0.9 2.6 0.00 0.00 0.00 42 1012.5
20260504232017 75 293 0.9 4.3 0.00 0.00 0.00 41 1012.4
20260504231017 75 270 0.9 3.5 0.00 0.00 0.00 40 1012.2
20260504230017 76 270 0.9 4.3 0.00 0.00 0.00 39 1012.1
20260504225017 77 90 0.9 4.3 0.00 0.00 0.00 39 1012.2
20260504224037 77 293 1.7 6.1 0.00 0.00 0.00 38 1012.5
20260504223016 77 315 1.7 6.1 0.00 0.00 0.00 38 1012.5
20260504222017 78 270 1.7 8.7 0.00 0.00 0.00 37 1012.4
20260504221017 79 293 1.7 4.3 0.00 0.00 0.00 37 1012.3
20260504220017 79 293 2.6 8.7 0.00 0.00 0.00 36 1012.3
20260504215016 80 293 1.7 7.0 0.00 0.00 0.00 36 1012.3
20260504214017 80 270 1.7 7.0 0.00 0.00 0.00 36 1012.2
20260504213018 80 293 0.9 3.5 0.00 0.00 0.00 36 1012.2
20260504212016 80 45 1.7 4.3 0.00 0.00 0.00 36 1012.3
20260504211036 80 270 2.6 7.0 0.00 0.00 0.00 35 1012.3
20260504210017 80 315 1.7 7.0 0.00 0.00 0.00 36 1012.2
20260504205017 80 270 1.7 3.5 0.00 0.00 0.00 36 1012.2
20260504204037 80 270 2.6 9.6 0.00 0.00 0.00 36 1012.3
20260504203017 80 338 0.9 3.5 0.00 0.00 0.00 35 1012.4
20260504202017 79 293 1.7 4.3 0.00 0.00 0.00 36 1012.5
20260504201017 79 293 2.6 7.0 0.00 0.00 0.00 37 1012.7
20260504200037 78 293 2.6 9.6 0.00 0.00 0.00 37 1012.6
20260504195017 79 293 2.6 7.0 0.00 0.00 0.00 37 1012.7
20260504194017 79 270 1.7 4.3 0.00 0.00 0.00 37 1013.0
20260504193017 78 293 1.7 6.1 0.00 0.00 0.00 36 1013.2
20260504192017 78 293 1.7 5.2 0.00 0.00 0.00 37 1013.5
20260504191016 77 293 2.6 6.1 0.00 0.00 0.00 37 1013.6
20260504190017 78 90 1.7 6.1 0.00 0.00 0.00 36 1013.6
20260504185017 77 315 1.7 9.6 0.00 0.00 0.00 37 1013.9